Regional Weather Roundup
Issued by NWS

Home | Current Version | Previous Version | Graphics & Text | Print | Product List | Glossary On
Versions: 1 2 3 4 5 6 7 8 9 10 11 12 13 14 15 16 17 18 19 20 21 22 23 24 25 26 27 28 29 30 31 32 33 34 35 36 37 38 39 40 41 42 43 44 45 46 47 48 49 50
000
ASUS43 KLMK 101502
RWRKY
KENTUCKY REGIONAL WEATHER ROUNDUP
NATIONAL WEATHER SERVICE LOUISVILLE KY
1100 AM EDT THU JUL 10 2014

NOTE "FAIR" INDICATES FEW OR NO CLOUDS BELOW 12,000 FEET
WITH NO SIGNIFICANT WEATHER AND/OR OBSTRUCTIONS TO VISIBILITY.

KYZ001>023-026-027-061>063-070>075-101600-
WESTERN AND SOUTH CENTRAL KENTUCKY

CITY           SKY/WX    TMP DP  RH WIND       PRES   REMARKS
PADUCAH        SUNNY     81  66  60 E7        30.10S
HENDERSON        N/A     79 N/A N/A NE3       30.12
OWENSBORO      SUNNY     78  61  55 NE8       30.12R
HOPKINSVILLE   SUNNY     85  61  44 VRB2      30.10S
BOWLING GREEN  SUNNY     82  63  52 SW3       30.11S
GLASGOW        NOT AVBL
$$

KYZ024-025-028>034-038-045-046-053-101600-
NORTH CENTRAL KENTUCKY

CITY           SKY/WX    TMP DP  RH WIND       PRES   REMARKS
LOUISVILLE/SDF PTSUNNY   81  59  47 N7        30.12R
LOUISVILLE/LOU PTSUNNY   80  58  46 N3        30.12R
FORT KNOX      SUNNY     77  64  62 N5        30.12R
$$

KYZ035>037-039>044-047>052-055>060-089>105-101600-
NORTHEAST KENTUCKY

CITY           SKY/WX    TMP DP  RH WIND       PRES   REMARKS
LEXINGTON      SUNNY     80  62  54 NW5       30.13R
COVINGTON      MOSUNNY   77  59  53 CALM      30.13R
FRANKFORT      SUNNY     80  62  54 VRB3      30.12R
$$

KYZ054-064>069-076>088-106>120-101600-
SOUTHEAST KENTUCKY

CITY           SKY/WX    TMP DP  RH WIND       PRES   REMARKS
JACKSON        MOSUNNY   76  61  59 CALM      30.14R
LONDON         MOSUNNY   78  65  63 CALM      30.13R
SOMERSET       SUNNY     77  61  57 CALM      30.14R
MIDDLESBORO    CLOUDY    74  67  77 CALM      30.14R
MONTICELLO     MOSUNNY   81  66  60 CALM      30.14R
$$




USA.gov is the U.S. government's official web portal to all federal, state and local government web resources and services.